Overview Statistics Trail Chart Weather Telemetry Raw packets
 

This is the latest recevied weather packets stored in our database for station/object E22ZMG-2. If no packets are shown the sender has not sent any weather packets the latest 10 day(s).

<< 16 17 18 19 20 21 22 >>
Time Temp. Humidity Pressure Rain* Wind** Luminosity Snow
1777354518 32.78° C 43% 925 hPa - - 0 W/m² -
1777353894 32.78° C 46% 925 hPa - - 0 W/m² -
1777353379 32.22° C 47% 925 hPa - - 0 W/m² -
1777352755 31.67° C 48% 925 hPa - - 0 W/m² -
1777352131 31.67° C 49% 926 hPa - - 0 W/m² -
1777351507 31.67° C 49% 926 hPa - - 0 W/m² -
1777350883 31.67° C 49% 926 hPa - - 0 W/m² -
1777350611 31.67° C 48% 926 hPa - - 0 W/m² -
1777350540 31.67° C 49% 926 hPa - - 0 W/m² -
1777349916 31.67° C 49% 926 hPa - - 0 W/m² -
1777349292 31.67° C 49% 926 hPa - - 0 W/m² -
1777348668 31.67° C 50% 926 hPa - - 0 W/m² -
1777348043 31.67° C 46% 926 hPa - - 0 W/m² -
1777347419 31.11° C 47% 926 hPa - - 0 W/m² -
1777346796 31.11° C 48% 926 hPa - - 0 W/m² -
1777346171 31.11° C 48% 926 hPa - - 0 W/m² -
1777345547 30.56° C 50% 926 hPa - - 0 W/m² -
1777344923 30° C 51% 926 hPa - - 0 W/m² -
1777344299 29.44° C 52% 926 hPa - - 0 W/m² -
1777343675 30° C 54% 926 hPa - - 0 W/m² -
1777343051 29.44° C 55% 926 hPa - - 0 W/m² -
1777342426 28.89° C 56% 926 hPa - - 0 W/m² -
1777342005 29.44° C 52% 926 hPa - - 0 W/m² -
1777341507 29.44° C 51% 926 hPa - - 0 W/m² -
1777340884 29.44° C 52% 926 hPa - - 0 W/m² -

* Rain since midnight (hover to see other rain measurements)
** Current wind speed in m/s (hover to see current wind gust speed)